SQ9PDE-13 Weather Reports


Display with metric or nautical units.
time (UTC)temp
F
wind
direction
speed
MPH
gust
MPH
rain 1hr
in
rain 24hr
in
rain mn
in
humidity
%
barometer
mb
20260507114505 70 0.0 0.0 0.00 0.00 0.00 61 1009.7
20260507114036 70 0.0 0.0 0.00 0.00 0.00 61 1009.9
20260507114004 70 0.0 0.0 0.00 0.00 0.00 61 1009.9
20260507113504 70 0.0 0.0 0.00 0.00 0.00 62 1009.9
20260507113004 69 0.0 0.0 0.00 0.00 0.00 62 1010.1
20260507112503 68 0.0 0.0 0.00 0.00 0.00 65 1010.3
20260507112002 68 0.0 0.0 0.00 0.00 0.00 65 1010.2
20260507111503 68 0.0 0.0 0.00 0.00 0.00 64 1010.3
20260507111001 68 0.0 0.0 0.00 0.00 0.00 64 1010.2
20260507110501 67 0.0 0.0 0.00 0.00 0.00 65 1010.3
20260507110124 68 0.0 0.0 0.00 0.00 0.00 64 1010.0
20260507110000 68 0.0 0.0 0.00 0.00 0.00 64 1010.0
20260507105546 69 0.0 0.0 0.00 0.00 0.00 64 1010.0
20260507105459 69 0.0 0.0 0.00 0.00 0.00 64 1010.0
20260507104959 68 0.0 0.0 0.00 0.00 0.00 64 1010.0
20260507104458 67 0.0 0.0 0.00 0.00 0.00 65 1010.0
20260507103958 68 0.0 0.0 0.00 0.00 0.00 63 1009.9
20260507103457 67 0.0 0.0 0.00 0.00 0.00 67 1010.1
20260507102957 67 0.0 0.0 0.00 0.00 0.00 66 1010.1
20260507102456 68 0.0 0.0 0.00 0.00 0.00 66 1009.9
20260507101956 67 0.0 0.0 0.00 0.00 0.00 69 1010.1
20260507101455 68 0.0 0.0 0.00 0.00 0.00 67 1009.9
20260507101039 69 0.0 0.0 0.00 0.00 0.00 67 1009.8
20260507100955 69 0.0 0.0 0.00 0.00 0.00 67 1009.8
20260507100454 67 0.0 0.0 0.00 0.00 0.00 69 1009.9
20260507095954 68 0.0 0.0 0.00 0.00 0.00 69 1009.8
20260507095617 67 0.0 0.0 0.00 0.00 0.00 70 1009.9
20260507095544 67 0.0 0.0 0.00 0.00 0.00 70 1009.9
20260507095453 67 0.0 0.0 0.00 0.00 0.00 70 1009.9
20260507094953 66 0.0 0.0 0.00 0.00 0.00 71 1009.9
20260507094452 67 0.0 0.0 0.00 0.00 0.00 70 1009.8
20260507093952 67 0.0 0.0 0.00 0.00 0.00 71 1009.9
20260507093534 67 0.0 0.0 0.00 0.00 0.00 72 1009.8
20260507093451 67 0.0 0.0 0.00 0.00 0.00 72 1009.8
20260507092951 65 0.0 0.0 0.00 0.00 0.00 73 1009.7
20260507092450 65 0.0 0.0 0.00 0.00 0.00 73 1009.7
20260507091950 65 0.0 0.0 0.00 0.00 0.00 73 1009.7
20260507091449 64 0.0 0.0 0.00 0.00 0.00 74 1009.6
20260507090949 65 0.0 0.0 0.00 0.00 0.00 73 1009.4
20260507090448 64 0.0 0.0 0.00 0.00 0.00 73 1009.5
20260507085947 64 0.0 0.0 0.00 0.00 0.00 73 1009.4
20260507085523 65 0.0 0.0 0.00 0.00 0.00 72 1009.2
20260507085447 65 0.0 0.0 0.00 0.00 0.00 72 1009.2
20260507084946 65 0.0 0.0 0.00 0.00 0.00 73 1009.3
20260507084446 65 0.0 0.0 0.00 0.00 0.00 74 1009.3
20260507083945 66 0.0 0.0 0.00 0.00 0.00 74 1009.2
20260507083445 64 0.0 0.0 0.00 0.00 0.00 76 1009.2
20260507082944 63 0.0 0.0 0.00 0.00 0.00 76 1009.1
20260507082444 63 0.0 0.0 0.00 0.00 0.00 76 1009.1
20260507081943 63 0.0 0.0 0.00 0.00 0.00 75 1009.0
20260507081443 63 0.0 0.0 0.00 0.00 0.00 76 1009.0
20260507080942 63 0.0 0.0 0.00 0.00 0.00 76 1008.9
20260507080442 62 0.0 0.0 0.00 0.00 0.00 76 1009.0
20260507075941 63 0.0 0.0 0.00 0.00 0.00 75 1008.8
20260507075441 64 0.0 0.0 0.00 0.00 0.00 73 1008.7
20260507074940 64 0.0 0.0 0.00 0.00 0.00 74 1008.7
20260507074513 64 0.0 0.0 0.00 0.00 0.00 73 1008.5
20260507074440 64 0.0 0.0 0.00 0.00 0.00 73 1008.5
20260507073939 66 0.0 0.0 0.00 0.00 0.00 73 1008.4
20260507073439 65 0.0 0.0 0.00 0.00 0.00 75 1008.7
20260507072938 64 0.0 0.0 0.00 0.00 0.00 76 1008.6
20260507072438 65 0.0 0.0 0.00 0.00 0.00 75 1008.5
20260507071937 64 0.0 0.0 0.00 0.00 0.00 76 1008.4
20260507071436 64 0.0 0.0 0.00 0.00 0.00 77 1008.6
20260507070936 64 0.0 0.0 0.00 0.00 0.00 77 1008.5
20260507070519 63 0.0 0.0 0.00 0.00 0.00 79 1008.6
20260507070435 63 0.0 0.0 0.00 0.00 0.00 79 1008.6
20260507065935 62 0.0 0.0 0.00 0.00 0.00 78 1008.5
20260507065434 62 0.0 0.0 0.00 0.00 0.00 79 1008.5
20260507065014 62 0.0 0.0 0.00 0.00 0.00 78 1008.3
20260507064934 62 0.0 0.0 0.00 0.00 0.00 78 1008.3
20260507064433 61 0.0 0.0 0.00 0.00 0.00 79 1008.4
20260507063933 61 0.0 0.0 0.00 0.00 0.00 79 1008.3
20260507063510 61 0.0 0.0 0.00 0.00 0.00 79 1008.3
20260507063432 61 0.0 0.0 0.00 0.00 0.00 79 1008.3
20260507062932 61 0.0 0.0 0.00 0.00 0.00 78 1008.2
20260507062431 61 0.0 0.0 0.00 0.00 0.00 76 1008.2
20260507061931 60 0.0 0.0 0.00 0.00 0.00 77 1008.2
20260507061430 60 0.0 0.0 0.00 0.00 0.00 76 1008.1
20260507061024 60 0.0 0.0 0.00 0.00 0.00 75 1008.1
20260507060930 60 0.0 0.0 0.00 0.00 0.00 75 1008.1
20260507060510 61 0.0 0.0 0.00 0.00 0.00 75 1008.0
20260507060429 61 0.0 0.0 0.00 0.00 0.00 75 1008.0
20260507060016 61 0.0 0.0 0.00 0.00 0.00 75 1008.0
20260507055929 61 0.0 0.0 0.00 0.00 0.00 75 1008.0
20260507055428 61 0.0 0.0 0.00 0.00 0.00 75 1007.9
20260507055008 61 0.0 0.0 0.00 0.00 0.00 74 1007.9
20260507054928 61 0.0 0.0 0.00 0.00 0.00 74 1007.9
20260507054508 61 0.0 0.0 0.00 0.00 0.00 74 1007.9
20260507054427 61 0.0 0.0 0.00 0.00 0.00 74 1007.9
20260507053927 61 0.0 0.0 0.00 0.00 0.00 73 1007.8
20260507053524 61 0.0 0.0 0.00 0.00 0.00 73 1007.8
20260507053426 61 0.0 0.0 0.00 0.00 0.00 73 1007.8
20260507052926 61 0.0 0.0 0.00 0.00 0.00 73 1007.7
20260507052425 61 0.0 0.0 0.00 0.00 0.00 73 1007.7
20260507051924 61 0.0 0.0 0.00 0.00 0.00 72 1007.6
20260507051424 61 0.0 0.0 0.00 0.00 0.00 72 1007.6
20260507051016 60 0.0 0.0 0.00 0.00 0.00 72 1007.6
20260507050923 60 0.0 0.0 0.00 0.00 0.00 72 1007.6
20260507050423 60 0.0 0.0 0.00 0.00 0.00 72 1007.5
20260507045955 60 0.0 0.0 0.00 0.00 0.00 72 1007.5
20260507045922 60 0.0 0.0 0.00 0.00 0.00 72 1007.5
20260507045453 60 0.0 0.0 0.00 0.00 0.00 71 1007.4
20260507045422 60 0.0 0.0 0.00 0.00 0.00 71 1007.4
20260507045005 61 0.0 0.0 0.00 0.00 0.00 71 1007.4
20260507044921 61 0.0 0.0 0.00 0.00 0.00 71 1007.4
20260507044421 60 0.0 0.0 0.00 0.00 0.00 71 1007.4
20260507043920 60 0.0 0.0 0.00 0.00 0.00 71 1007.3
20260507043420 60 0.0 0.0 0.00 0.00 0.00 70 1007.3
20260507042919 61 0.0 0.0 0.00 0.00 0.00 70 1007.2
20260507042653 61 0.0 0.0 0.00 0.00 0.00 70 1007.1
20260507042512 61 0.0 0.0 0.00 0.00 0.00 70 1007.1
20260507042419 61 0.0 0.0 0.00 0.00 0.00 70 1007.1
20260507041957 61 0.0 0.0 0.00 0.00 0.00 70 1007.1
20260507041918 61 0.0 0.0 0.00 0.00 0.00 70 1007.1
20260507041418 60 0.0 0.0 0.00 0.00 0.00 70 1006.9
20260507040917 60 0.0 0.0 0.00 0.00 0.00 69 1006.9
20260507040417 61 0.0 0.0 0.00 0.00 0.00 69 1006.9
20260507035916 61 0.0 0.0 0.00 0.00 0.00 68 1006.8
20260507035505 61 0.0 0.0 0.00 0.00 0.00 68 1006.8
20260507035416 61 0.0 0.0 0.00 0.00 0.00 68 1006.8
20260507035007 61 0.0 0.0 0.00 0.00 0.00 68 1006.7
20260507034915 61 0.0 0.0 0.00 0.00 0.00 68 1006.7
20260507034447 61 0.0 0.0 0.00 0.00 0.00 68 1006.7
20260507034414 61 0.0 0.0 0.00 0.00 0.00 68 1006.7
20260507033914 61 0.0 0.0 0.00 0.00 0.00 68 1006.7
20260507033414 61 0.0 0.0 0.00 0.00 0.00 68 1006.6
20260507032913 61 0.0 0.0 0.00 0.00 0.00 66 1006.5
20260507032412 61 0.0 0.0 0.00 0.00 0.00 66 1006.5
20260507031912 61 0.0 0.0 0.00 0.00 0.00 67 1006.5
20260507031507 61 0.0 0.0 0.00 0.00 0.00 67 1006.5
20260507031411 61 0.0 0.0 0.00 0.00 0.00 67 1006.5
20260507030911 61 0.0 0.0 0.00 0.00 0.00 67 1006.5
20260507030410 60 0.0 0.0 0.00 0.00 0.00 68 1006.5
20260507030002 61 0.0 0.0 0.00 0.00 0.00 67 1006.5
20260507025910 61 0.0 0.0 0.00 0.00 0.00 67 1006.5
20260507025556 61 0.0 0.0 0.00 0.00 0.00 67 1006.4
20260507025517 61 0.0 0.0 0.00 0.00 0.00 67 1006.4
20260507025409 61 0.0 0.0 0.00 0.00 0.00 67 1006.4
20260507024909 61 0.0 0.0 0.00 0.00 0.00 66 1006.4
20260507024408 61 0.0 0.0 0.00 0.00 0.00 67 1006.4
20260507023908 61 0.0 0.0 0.00 0.00 0.00 67 1006.4
20260507023440 60 0.0 0.0 0.00 0.00 0.00 68 1006.4
20260507023407 60 0.0 0.0 0.00 0.00 0.00 68 1006.4
20260507022907 60 0.0 0.0 0.00 0.00 0.00 69 1006.4
20260507022406 60 0.0 0.0 0.00 0.00 0.00 70 1006.4
20260507021906 60 0.0 0.0 0.00 0.00 0.00 70 1006.4
20260507021405 60 0.0 0.0 0.00 0.00 0.00 67 1006.3
20260507020905 60 0.0 0.0 0.00 0.00 0.00 66 1006.1
20260507020404 60 0.0 0.0 0.00 0.00 0.00 67 1006.2
20260507015903 60 0.0 0.0 0.00 0.00 0.00 66 1006.2
20260507015403 60 0.0 0.0 0.00 0.00 0.00 67 1006.2
20260507014903 60 0.0 0.0 0.00 0.00 0.00 67 1006.2
20260507014402 60 0.0 0.0 0.00 0.00 0.00 68 1006.1
20260507014103 60 0.0 0.0 0.00 0.00 0.00 68 1006.2
20260507013901 60 0.0 0.0 0.00 0.00 0.00 68 1006.2
20260507013401 59 0.0 0.0 0.00 0.00 0.00 69 1006.1
20260507012900 60 0.0 0.0 0.00 0.00 0.00 68 1006.1
20260507012400 60 0.0 0.0 0.00 0.00 0.00 67 1006.0
20260507011859 60 0.0 0.0 0.00 0.00 0.00 67 1006.1
20260507011454 60 0.0 0.0 0.00 0.00 0.00 67 1006.0
20260507011359 60 0.0 0.0 0.00 0.00 0.00 67 1006.0
20260507011357 61 0.0 0.0 0.00 0.00 0.00 66 1005.9
20260507010858 61 0.0 0.0 0.00 0.00 0.00 66 1005.9
20260507010358 61 0.0 0.0 0.00 0.00 0.00 65 1005.8
20260507005857 61 0.0 0.0 0.00 0.00 0.00 65 1005.8
20260507005357 61 0.0 0.0 0.00 0.00 0.00 65 1005.8
20260507004856 61 0.0 0.0 0.00 0.00 0.00 64 1005.8
20260507004356 62 0.0 0.0 0.00 0.00 0.00 63 1005.6
20260507004025 62 0.0 0.0 0.00 0.00 0.00 63 1005.7
20260507003855 62 0.0 0.0 0.00 0.00 0.00 63 1005.7
20260507003355 62 0.0 0.0 0.00 0.00 0.00 62 1005.7
20260507002854 62 0.0 0.0 0.00 0.00 0.00 62 1005.7
20260507002603 62 0.0 0.0 0.00 0.00 0.00 61 1005.6
20260507002354 62 0.0 0.0 0.00 0.00 0.00 61 1005.6
20260507002003 62 0.0 0.0 0.00 0.00 0.00 61 1005.6
20260507001853 62 0.0 0.0 0.00 0.00 0.00 61 1005.6
20260507001541 63 0.0 0.0 0.00 0.00 0.00 61 1005.7
20260507001353 63 0.0 0.0 0.00 0.00 0.00 61 1005.7
20260507000948 63 0.0 0.0 0.00 0.00 0.00 61 1005.6
20260507000852 63 0.0 0.0 0.00 0.00 0.00 61 1005.6
20260507000351 63 0.0 0.0 0.00 0.00 0.00 60 1005.7
20260506235851 63 0.0 0.0 0.00 0.00 0.00 60 1005.7
20260506235350 63 0.0 0.0 0.00 0.00 0.00 59 1005.7
20260506235002 64 0.0 0.0 0.00 0.00 0.00 58 1005.6
20260506234850 64 0.0 0.0 0.00 0.00 0.00 58 1005.6
20260506234454 64 0.0 0.0 0.00 0.00 0.00 58 1005.7
20260506234349 64 0.0 0.0 0.00 0.00 0.00 58 1005.7
20260506234010 64 0.0 0.0 0.00 0.00 0.00 58 1005.6
20260506233933 64 0.0 0.0 0.00 0.00 0.00 58 1005.6
20260506233849 64 0.0 0.0 0.00 0.00 0.00 58 1005.6
20260506233348 64 0.0 0.0 0.00 0.00 0.00 58 1005.6
20260506232848 63 0.0 0.0 0.00 0.00 0.00 58 1005.7
20260506232347 63 0.0 0.0 0.00 0.00 0.00 59 1005.8
20260506231847 62 0.0 0.0 0.00 0.00 0.00 61 1005.8
20260506231346 62 0.0 0.0 0.00 0.00 0.00 59 1005.7
20260506230846 62 0.0 0.0 0.00 0.00 0.00 60 1005.8
20260506230345 62 0.0 0.0 0.00 0.00 0.00 60 1005.9
20260506225943 62 0.0 0.0 0.00 0.00 0.00 60 1005.9
20260506225845 62 0.0 0.0 0.00 0.00 0.00 60 1005.9
20260506225454 62 0.0 0.0 0.00 0.00 0.00 60 1005.9
20260506225354 62 0.0 0.0 0.00 0.00 0.00 60 1005.9
20260506225344 62 0.0 0.0 0.00 0.00 0.00 60 1005.9
20260506224844 62 0.0 0.0 0.00 0.00 0.00 60 1005.8
20260506224501 62 0.0 0.0 0.00 0.00 0.00 60 1005.8
20260506224343 62 0.0 0.0 0.00 0.00 0.00 60 1005.8
20260506223843 62 0.0 0.0 0.00 0.00 0.00 59 1005.8
20260506223342 62 0.0 0.0 0.00 0.00 0.00 59 1005.7
20260506222943 63 0.0 0.0 0.00 0.00 0.00 59 1005.7
20260506222842 63 0.0 0.0 0.00 0.00 0.00 59 1005.7
20260506222341 62 0.0 0.0 0.00 0.00 0.00 59 1005.7
20260506221841 62 0.0 0.0 0.00 0.00 0.00 60 1005.7
20260506221340 62 0.0 0.0 0.00 0.00 0.00 60 1005.8
20260506220953 62 0.0 0.0 0.00 0.00 0.00 60 1005.9
20260506220919 62 0.0 0.0 0.00 0.00 0.00 60 1005.9
20260506220839 62 0.0 0.0 0.00 0.00 0.00 60 1005.9
20260506220348 62 0.0 0.0 0.00 0.00 0.00 60 1005.8
20260506220339 62 0.0 0.0 0.00 0.00 0.00 60 1005.8
20260506215839 62 0.0 0.0 0.00 0.00 0.00 60 1005.8
20260506215455 62 0.0 0.0 0.00 0.00 0.00 59 1005.7
20260506215338 62 0.0 0.0 0.00 0.00 0.00 59 1005.7
20260506214837 62 0.0 0.0 0.00 0.00 0.00 59 1005.8
20260506214337 62 0.0 0.0 0.00 0.00 0.00 59 1005.9
20260506213836 62 0.0 0.0 0.00 0.00 0.00 58 1005.8
20260506213336 63 0.0 0.0 0.00 0.00 0.00 58 1005.7
20260506212835 63 0.0 0.0 0.00 0.00 0.00 57 1005.7
20260506212335 63 0.0 0.0 0.00 0.00 0.00 57 1005.7
20260506211834 63 0.0 0.0 0.00 0.00 0.00 57 1005.7
20260506211334 64 0.0 0.0 0.00 0.00 0.00 57 1005.7
20260506210833 63 0.0 0.0 0.00 0.00 0.00 57 1005.6
20260506210333 63 0.0 0.0 0.00 0.00 0.00 58 1005.6
20260506205832 63 0.0 0.0 0.00 0.00 0.00 58 1005.6
20260506205332 63 0.0 0.0 0.00 0.00 0.00 57 1005.5
20260506204831 63 0.0 0.0 0.00 0.00 0.00 57 1005.6
20260506204331 63 0.0 0.0 0.00 0.00 0.00 57 1005.6
20260506203830 63 0.0 0.0 0.00 0.00 0.00 57 1005.5
20260506203330 63 0.0 0.0 0.00 0.00 0.00 57 1005.6
20260506202829 64 0.0 0.0 0.00 0.00 0.00 56 1005.6
20260506202329 63 0.0 0.0 0.00 0.00 0.00 56 1005.5
20260506201828 63 0.0 0.0 0.00 0.00 0.00 56 1005.5
20260506201328 63 0.0 0.0 0.00 0.00 0.00 56 1005.5
20260506200827 63 0.0 0.0 0.00 0.00 0.00 56 1005.5
20260506200326 63 0.0 0.0 0.00 0.00 0.00 55 1005.4
20260506195826 63 0.0 0.0 0.00 0.00 0.00 55 1005.5
20260506195409 63 0.0 0.0 0.00 0.00 0.00 55 1005.5
20260506195325 63 0.0 0.0 0.00 0.00 0.00 55 1005.5
20260506194825 63 0.0 0.0 0.00 0.00 0.00 55 1005.4
20260506194359 63 0.0 0.0 0.00 0.00 0.00 55 1005.4
20260506194324 63 0.0 0.0 0.00 0.00 0.00 55 1005.4
20260506193824 63 0.0 0.0 0.00 0.00 0.00 54 1005.4
20260506193323 63 0.0 0.0 0.00 0.00 0.00 53 1005.4
20260506192823 64 0.0 0.0 0.00 0.00 0.00 52 1005.3
20260506192322 64 0.0 0.0 0.00 0.00 0.00 51 1005.2
20260506191822 64 0.0 0.0 0.00 0.00 0.00 50 1005.1
20260506191321 64 0.0 0.0 0.00 0.00 0.00 50 1005.2
20260506190821 65 0.0 0.0 0.00 0.00 0.00 49 1005.1
20260506190320 64 0.0 0.0 0.00 0.00 0.00 50 1005.1
20260506185820 65 0.0 0.0 0.00 0.00 0.00 49 1005.0
20260506185319 65 0.0 0.0 0.00 0.00 0.00 48 1004.9
20260506184819 66 0.0 0.0 0.00 0.00 0.00 47 1004.8
20260506184318 66 0.0 0.0 0.00 0.00 0.00 47 1004.8
20260506183818 66 0.0 0.0 0.00 0.00 0.00 46 1004.7
20260506183317 67 0.0 0.0 0.00 0.00 0.00 45 1004.6
20260506182817 67 0.0 0.0 0.00 0.00 0.00 45 1004.6
20260506182316 67 0.0 0.0 0.00 0.00 0.00 45 1004.5
20260506181816 67 0.0 0.0 0.00 0.00 0.00 45 1004.5
20260506181315 68 0.0 0.0 0.00 0.00 0.00 45 1004.4
20260506180814 68 0.0 0.0 0.00 0.00 0.00 44 1004.3
20260506180314 68 0.0 0.0 0.00 0.00 0.00 44 1004.2
20260506175813 68 0.0 0.0 0.00 0.00 0.00 44 1004.2
20260506175313 69 0.0 0.0 0.00 0.00 0.00 45 1004.3
20260506174812 69 0.0 0.0 0.00 0.00 0.00 45 1004.2
20260506174312 69 0.0 0.0 0.00 0.00 0.00 45 1004.3
20260506173811 69 0.0 0.0 0.00 0.00 0.00 45 1004.2
20260506173311 69 0.0 0.0 0.00 0.00 0.00 44 1004.2
20260506172810 69 0.0 0.0 0.00 0.00 0.00 44 1004.3
20260506172310 69 0.0 0.0 0.00 0.00 0.00 44 1004.3
20260506171809 69 0.0 0.0 0.00 0.00 0.00 44 1004.2
20260506171309 70 0.0 0.0 0.00 0.00 0.00 43 1004.2
20260506170808 70 0.0 0.0 0.00 0.00 0.00 43 1004.2
20260506170308 70 0.0 0.0 0.00 0.00 0.00 42 1004.2
20260506165838 70 0.0 0.0 0.00 0.00 0.00 40 1004.1
20260506165807 70 0.0 0.0 0.00 0.00 0.00 40 1004.1
20260506165307 70 0.0 0.0 0.00 0.00 0.00 41 1004.1
20260506164903 70 0.0 0.0 0.00 0.00 0.00 43 1004.1
20260506164806 70 0.0 0.0 0.00 0.00 0.00 43 1004.1
20260506164306 70 0.0 0.0 0.00 0.00 0.00 44 1004.4
20260506163805 71 0.0 0.0 0.00 0.00 0.00 44 1004.3
20260506163305 71 0.0 0.0 0.00 0.00 0.00 43 1004.3
20260506162855 72 0.0 0.0 0.00 0.00 0.00 44 1004.2
20260506162804 72 0.0 0.0 0.00 0.00 0.00 44 1004.2
20260506162523 72 0.0 0.0 0.00 0.00 0.00 43 1004.1
20260506162306 72 0.0 0.0 0.00 0.00 0.00 43 1004.1
20260506161340 73 0.0 0.0 0.00 0.00 0.00 41 1003.9
20260506161302 73 0.0 0.0 0.00 0.00 0.00 41 1003.9
20260506160802 74 0.0 0.0 0.00 0.00 0.00 41 1003.8
20260506160301 75 0.0 0.0 0.00 0.00 0.00 40 1003.6
20260506155801 75 0.0 0.0 0.00 0.00 0.00 40 1003.7
20260506155300 75 0.0 0.0 0.00 0.00 0.00 41 1003.8
20260506154800 75 0.0 0.0 0.00 0.00 0.00 39 1003.8
20260506154259 74 0.0 0.0 0.00 0.00 0.00 40 1003.9
20260506153759 76 0.0 0.0 0.00 0.00 0.00 40 1003.8
20260506153258 76 0.0 0.0 0.00 0.00 0.00 40 1003.7
20260506152840 76 0.0 0.0 0.00 0.00 0.00 41 1003.8
20260506152758 76 0.0 0.0 0.00 0.00 0.00 41 1003.8
20260506152328 76 0.0 0.0 0.00 0.00 0.00 41 1003.9
20260506152257 76 0.0 0.0 0.00 0.00 0.00 41 1003.9
20260506151757 77 0.0 0.0 0.00 0.00 0.00 41 1003.8
20260506151256 76 0.0 0.0 0.00 0.00 0.00 41 1003.9
20260506150756 77 0.0 0.0 0.00 0.00 0.00 41 1003.9
20260506150302 76 0.0 0.0 0.00 0.00 0.00 40 1003.9
20260506145755 76 0.0 0.0 0.00 0.00 0.00 42 1004.1
20260506145254 76 0.0 0.0 0.00 0.00 0.00 42 1004.2
20260506144754 76 0.0 0.0 0.00 0.00 0.00 41 1004.3
20260506144326 75 0.0 0.0 0.00 0.00 0.00 41 1004.2
20260506144253 75 0.0 0.0 0.00 0.00 0.00 41 1004.2
20260506143753 76 0.0 0.0 0.00 0.00 0.00 41 1004.3
20260506143252 76 0.0 0.0 0.00 0.00 0.00 40 1004.3
20260506142751 76 0.0 0.0 0.00 0.00 0.00 41 1004.3
20260506142251 75 0.0 0.0 0.00 0.00 0.00 41 1004.5
20260506141751 75 0.0 0.0 0.00 0.00 0.00 40 1004.5
20260506141250 75 0.0 0.0 0.00 0.00 0.00 40 1004.5
20260506140749 75 0.0 0.0 0.00 0.00 0.00 41 1004.5
20260506140249 76 0.0 0.0 0.00 0.00 0.00 40 1004.3
20260506135748 76 0.0 0.0 0.00 0.00 0.00 42 1004.4
20260506135248 76 0.0 0.0 0.00 0.00 0.00 43 1004.4
20260506134747 76 0.0 0.0 0.00 0.00 0.00 43 1004.4
20260506134247 76 0.0 0.0 0.00 0.00 0.00 43 1004.4
20260506133746 75 0.0 0.0 0.00 0.00 0.00 43 1004.6
20260506133246 76 0.0 0.0 0.00 0.00 0.00 44 1004.6
20260506132745 76 0.0 0.0 0.00 0.00 0.00 44 1004.6
20260506132245 77 0.0 0.0 0.00 0.00 0.00 45 1004.4
20260506131744 75 0.0 0.0 0.00 0.00 0.00 46 1004.8
20260506131244 77 0.0 0.0 0.00 0.00 0.00 46 1004.5
20260506130743 75 0.0 0.0 0.00 0.00 0.00 46 1005.0
20260506130243 75 0.0 0.0 0.00 0.00 0.00 46 1004.9
20260506125742 74 0.0 0.0 0.00 0.00 0.00 45 1004.8
20260506125242 75 0.0 0.0 0.00 0.00 0.00 44 1004.8
20260506124824 75 0.0 0.0 0.00 0.00 0.00 45 1004.9
20260506124741 75 0.0 0.0 0.00 0.00 0.00 45 1004.9
20260506124241 74 0.0 0.0 0.00 0.00 0.00 44 1004.9
20260506123740 76 0.0 0.0 0.00 0.00 0.00 44 1004.8
20260506123240 75 0.0 0.0 0.00 0.00 0.00 45 1004.9
20260506122739 75 0.0 0.0 0.00 0.00 0.00 45 1004.9
20260506122238 75 0.0 0.0 0.00 0.00 0.00 45 1004.9
20260506121853 75 0.0 0.0 0.00 0.00 0.00 44 1004.9
20260506121738 75 0.0 0.0 0.00 0.00 0.00 44 1004.9
20260506121246 75 0.0 0.0 0.00 0.00 0.00 45 1004.9
20260506121237 75 0.0 0.0 0.00 0.00 0.00 45 1004.9
20260506120737 76 0.0 0.0 0.00 0.00 0.00 43 1004.8
20260506120236 75 0.0 0.0 0.00 0.00 0.00 45 1004.8
20260506115736 75 0.0 0.0 0.00 0.00 0.00 45 1004.8
20260506115235 75 0.0 0.0 0.00 0.00 0.00 45 1004.8